Weather History for Kaiser, MO

Change the Weather History Date:

Sunday, January 27, 2013

  Actual Average Record
Temperature  
Mean Temperature 47 °F -  
Max Temperature 57 °F 40 °F 66 °F (2002)
Min Temperature 37 °F 22 °F 8 °F (2014)
Degree Days  
Heating Degree Days 18    
Moisture  
Dew Point 39 °F    
Average Humidity 75    
Maximum Humidity 87    
Minimum Humidity 42    
Precipitation  
Precipitation 0.10 in - - ()
Sea Level Pressure  
Sea Level Pressure 30.03 in    
Wind  
Wind Speed 9 mph (South)    
Max Wind Speed 17 mph    
Max Gust Speed 24 mph    
Visibility 10 miles    
Events      
Averages and records for this station are not official NWS values.
T = Trace of Precipitation, MM = Missing Value Source: NWS Daily Summary

Daily Weather History Graph

Daily Weather History Graph

Search for Another Location

Airport:

Trip Planner

Search our weather history database for the weather conditions in past years. The results will help you decide how hot, cold, wet, or windy it might be!

Date:

Astronomy

Jan. 27, 2013 Rise Set
Actual Time 7:18 AM CST 5:27 PM CST
Civil Twilight 6:50 AM CST 5:55 PM CST
Nautical Twilight 6:18 AM CST 6:27 PM CST
Astronomical Twilight 5:47 AM CST 6:58 PM CST
Moon 6:20 PM CST (1/27) 7:13 AM CST (1/27)
Length of Visible Light 11h 05m
Length of Day
10h 09m
Full, 100% of the Moon is Illuminated
Jan 27
Full
Feb 3
Last Quarter
Feb 10
New
Feb 17
First Quarter
Feb 25
Full

Hourly Weather History & Observations

Time (CST) Temp. Windchill Dew Point Humidity Pressure Visibility Wind Dir Wind Speed Gust Speed Precip Events Conditions
12:15 AM 41.0 °F 37.1 °F 21.2 °F 45% 30.20 in 10.0 mi ESE 5.8 mph - N/A   Unknown
12:35 AM 42.8 °F 40.1 °F 21.2 °F 42% 30.20 in 10.0 mi SSE 4.6 mph - N/A   Unknown
12:55 AM 42.8 °F 41.1 °F 21.2 °F 42% 30.20 in 10.0 mi SSE 3.5 mph - N/A   Unknown
1:15 AM 42.8 °F 38.6 °F 23.0 °F 46% 30.20 in 10.0 mi South 6.9 mph - N/A   Unknown
1:35 AM 42.8 °F 37.5 °F 24.8 °F 49% 30.19 in 10.0 mi SSE 9.2 mph - N/A   Unknown
1:55 AM 42.8 °F 37.0 °F 24.8 °F 49% 30.19 in 10.0 mi SSE 10.4 mph - N/A   Unknown
2:15 AM 41.0 °F 35.2 °F 26.6 °F 57% 30.19 in 10.0 mi SSE 9.2 mph - N/A   Unknown
2:35 AM 39.2 °F 33.0 °F 26.6 °F 61% 30.18 in 10.0 mi SE 9.2 mph - N/A   Unknown
2:55 AM 39.2 °F 35.0 °F 28.4 °F 65% 30.18 in 10.0 mi SSE 5.8 mph - N/A   Unknown
3:15 AM 37.4 °F 32.8 °F 30.2 °F 75% 30.18 in 8.0 mi SSE 5.8 mph - 0.02 in   Unknown
3:35 AM 37.4 °F 32.8 °F 30.2 °F 75% 30.18 in 9.0 mi SSE 5.8 mph - 0.04 in   Unknown
3:55 AM 37.4 °F 32.8 °F 32.0 °F 81% 30.16 in 9.0 mi SE 5.8 mph - 0.05 in   Unknown
4:15 AM 37.4 °F 32.1 °F 32.0 °F 81% 30.16 in 7.0 mi SSE 6.9 mph - 0.02 in   Unknown
4:35 AM 37.4 °F 30.8 °F 32.0 °F 81% 30.15 in 7.0 mi SSE 9.2 mph - 0.02 in   Unknown
4:55 AM 37.4 °F 30.3 °F 32.0 °F 81% 30.12 in 6.0 mi SE 10.4 mph - 0.04 in   Unknown
5:15 AM 37.4 °F 30.3 °F 33.8 °F 87% 30.09 in 7.0 mi SSE 10.4 mph 19.6 mph 0.01 in   Unknown
5:35 AM 37.4 °F 29.8 °F 33.8 °F 87% 30.11 in 8.0 mi SSE 11.5 mph - 0.01 in   Unknown
5:55 AM 37.4 °F 31.4 °F 33.8 °F 87% 30.12 in 10.0 mi South 8.1 mph 18.4 mph 0.01 in   Unknown
6:15 AM 37.4 °F 30.8 °F 33.8 °F 87% 30.12 in 10.0 mi SSE 9.2 mph 17.3 mph N/A   Unknown
6:35 AM 39.2 °F 31.6 °F 33.8 °F 81% 30.11 in 10.0 mi SSE 12.7 mph - N/A   Unknown
6:55 AM 39.2 °F 32.0 °F 33.8 °F 81% 30.11 in 10.0 mi SSE 11.5 mph - N/A   Unknown
7:15 AM 39.2 °F 33.0 °F 33.8 °F 81% 30.11 in 10.0 mi South 9.2 mph 16.1 mph N/A   Unknown
7:35 AM 39.2 °F 33.0 °F 33.8 °F 81% 30.10 in 10.0 mi SSE 9.2 mph - N/A   Unknown
7:55 AM 39.2 °F 32.5 °F 33.8 °F 81% 30.11 in 10.0 mi SSE 10.4 mph 16.1 mph N/A   Unknown
8:15 AM 39.2 °F 32.5 °F 33.8 °F 81% 30.10 in 10.0 mi South 10.4 mph - N/A   Unknown
8:35 AM 41.0 °F 34.7 °F 33.8 °F 76% 30.10 in 10.0 mi SSE 10.4 mph - N/A   Unknown
8:55 AM 41.0 °F 33.9 °F 33.8 °F 76% 30.09 in 10.0 mi South 12.7 mph 19.6 mph N/A   Unknown
9:15 AM 42.8 °F 37.0 °F 35.6 °F 76% 30.08 in 10.0 mi SSE 10.4 mph 16.1 mph N/A   Unknown
9:35 AM 42.8 °F 36.6 °F 35.6 °F 76% 30.07 in 9.0 mi SSE 11.5 mph 18.4 mph N/A   Unknown
9:55 AM 42.8 °F 36.2 °F 37.4 °F 81% 30.08 in 10.0 mi SSE 12.7 mph 16.1 mph N/A   Unknown
10:15 AM 42.8 °F 35.4 °F 37.4 °F 81% 30.08 in 10.0 mi South 15.0 mph 19.6 mph N/A   Unknown
10:35 AM 44.6 °F 38.8 °F 37.4 °F 76% 30.07 in 10.0 mi South 11.5 mph 18.4 mph N/A   Unknown
10:55 AM 44.6 °F 39.2 °F 37.4 °F 76% 30.06 in 10.0 mi South 10.4 mph - N/A   Unknown
11:15 AM 44.6 °F 38.8 °F 39.2 °F 81% 30.05 in 9.0 mi South 11.5 mph - N/A   Unknown
11:35 AM 46.4 °F 39.8 °F 39.2 °F 76% 30.04 in 10.0 mi South 16.1 mph 24.2 mph N/A   Unknown
11:55 AM 46.4 °F 41.1 °F 39.2 °F 76% 30.03 in 10.0 mi South 11.5 mph 19.6 mph N/A   Unknown
12:15 PM 46.4 °F 39.5 °F 41.0 °F 81% 30.01 in 10.0 mi South 17.3 mph 23.0 mph N/A   Unknown
12:35 PM 46.4 °F 40.4 °F 41.0 °F 81% 29.99 in 10.0 mi South 13.8 mph 24.2 mph N/A   Unknown
12:55 PM 46.4 °F 40.7 °F 41.0 °F 81% 29.98 in 10.0 mi South 12.7 mph 17.3 mph N/A   Unknown
1:15 PM 48.2 °F - 42.8 °F 82% 29.97 in 10.0 mi South 10.4 mph 17.3 mph N/A   Unknown
1:35 PM 48.2 °F - 42.8 °F 82% 29.97 in 10.0 mi South 10.4 mph - N/A   Unknown
1:55 PM 50.0 °F - 42.8 °F 76% 29.95 in 10.0 mi South 11.5 mph 17.3 mph N/A   Unknown
2:15 PM 51.8 °F - 42.8 °F 71% 29.94 in 10.0 mi South 10.4 mph - N/A   Unknown
2:35 PM 51.8 °F - 42.8 °F 71% 29.94 in 10.0 mi South 9.2 mph 17.3 mph N/A   Unknown
2:55 PM 51.8 °F - 42.8 °F 71% 29.93 in 10.0 mi South 10.4 mph 16.1 mph N/A   Unknown
3:15 PM 53.6 °F - 44.6 °F 72% 29.93 in 10.0 mi South 12.7 mph 16.1 mph N/A   Unknown
3:35 PM 53.6 °F - 44.6 °F 72% 29.92 in 10.0 mi South 13.8 mph 19.6 mph N/A   Unknown
3:55 PM 53.6 °F - 46.4 °F 77% 29.93 in 10.0 mi SSW 15.0 mph 20.7 mph N/A   Unknown
4:15 PM 53.6 °F - 44.6 °F 72% 29.92 in 10.0 mi South 12.7 mph 19.6 mph N/A   Unknown
4:35 PM 53.6 °F - 44.6 °F 72% 29.92 in 10.0 mi South 11.5 mph 18.4 mph N/A   Unknown
4:55 PM 53.6 °F - 44.6 °F 72% 29.92 in 10.0 mi South 10.4 mph - N/A   Unknown
5:15 PM 51.8 °F - 46.4 °F 82% 29.91 in 10.0 mi South 11.5 mph 17.3 mph N/A   Unknown
5:35 PM 51.8 °F - 44.6 °F 76% 29.92 in 10.0 mi South 9.2 mph - N/A   Unknown
5:55 PM 51.8 °F - 46.4 °F 82% 29.93 in 10.0 mi South 8.1 mph - N/A   Unknown
6:15 PM 51.8 °F - 46.4 °F 82% 29.93 in 10.0 mi South 9.2 mph - N/A   Unknown
6:35 PM 51.8 °F - 46.4 °F 82% 29.93 in 10.0 mi South 9.2 mph - N/A   Unknown
6:55 PM 51.8 °F - 46.4 °F 82% 29.93 in 10.0 mi South 11.5 mph - N/A   Unknown
7:15 PM 51.8 °F - 46.4 °F 82% 29.94 in 10.0 mi South 12.7 mph 17.3 mph N/A   Unknown
7:35 PM 53.6 °F - 46.4 °F 77% 29.94 in 10.0 mi South 10.4 mph 19.6 mph N/A   Unknown
7:55 PM 53.6 °F - 48.2 °F 82% 29.94 in 10.0 mi South 12.7 mph 19.6 mph N/A   Unknown
8:15 PM 53.6 °F - 48.2 °F 82% 29.94 in 10.0 mi South 10.4 mph 17.3 mph N/A   Unknown
8:35 PM 55.4 °F - 48.2 °F 77% 29.93 in 10.0 mi South 11.5 mph 17.3 mph N/A   Unknown
8:55 PM 55.4 °F - 48.2 °F 77% 29.93 in 10.0 mi South 11.5 mph - N/A   Unknown
9:15 PM 55.4 °F - 48.2 °F 77% 29.94 in 10.0 mi South 9.2 mph - N/A   Unknown
9:35 PM 55.4 °F - 50.0 °F 82% 29.94 in 10.0 mi SSW 11.5 mph 18.4 mph N/A   Unknown
9:55 PM 57.2 °F - 48.2 °F 72% 29.94 in 10.0 mi South 12.7 mph 19.6 mph N/A   Unknown
10:15 PM 57.2 °F - 50.0 °F 77% 29.95 in 10.0 mi SSW 11.5 mph 17.3 mph N/A   Unknown
10:35 PM 57.2 °F - 50.0 °F 77% 29.94 in 10.0 mi SSW 11.5 mph 17.3 mph N/A   Unknown
10:55 PM 57.2 °F - 50.0 °F 77% 29.95 in 10.0 mi SSW 10.4 mph - N/A   Unknown
11:15 PM 57.2 °F - 50.0 °F 77% 29.95 in 10.0 mi South 12.7 mph - N/A   Unknown
11:35 PM 57.2 °F - 50.0 °F 77% 29.94 in 10.0 mi South 12.7 mph 18.4 mph N/A   Unknown
11:55 PM 57.2 °F - 51.8 °F 82% 29.94 in 10.0 mi South 10.4 mph 18.4 mph N/A   Unknown